Fairbanks, AK

8:41 PM AKDT on August 17, 2019 (GMT -0800)
Fairbanks International

Weather History for PAFA - July, 2019

Change the Weather History Date:

Monday, July 15, 2019

  Actual Average Record
Temperature  
Mean Temperature 66 °F 63 °F  
Max Temperature 79 °F 73 °F 93 °F (1993)
Min Temperature 53 °F 53 °F 40 °F (1959)
Degree Days  
Heating Degree Days 0 3  
Month to date heating degree days 10 45  
Since 1 June heating degree days 94 205  
Since 1 July heating degree days 10 45  
Cooling Degree Days 1 1  
Month to date cooling degree days 49 19  
Year to date cooling degree days 97 43  
Since 1 June cooling degree days 96 42  
Growing Degree Days 16 (Base 50)    
Moisture  
Dew Point 51 °F    
Average Humidity 59    
Maximum Humidity 93    
Minimum Humidity 29    
Precipitation  
Precipitation 0.00 in 0.08 in 0.66 in (2003)
Month to date precipitation 0.18 0.98  
Year to date precipitation 5.18 4.51  
Snow  
Snow 0.00 in 0.00 in 0.00 in (2002)
Month to date snowfall 0.0 0.0  
Since 1 June snowfall 0.0 0.0  
Since 1 July snowfall 0.0 0.0  
Snow Depth 0.00 in    
Sea Level Pressure  
Sea Level Pressure 29.71 in    
Wind  
Wind Speed 4 mph (ESE)    
Max Wind Speed 10 mph    
Max Gust Speed 17 mph    
Visibility 10 miles    
Events      
T = Trace of Precipitation, MM = Missing Value Source: NWS Daily Summary

Daily Weather History Graph

Daily Weather History Graph

Search for Another Location

Airport or City:

Astronomy

Jul. 15, 2019 Rise Set
Actual Time 3:53 AM AKDT 11:59 PM AKDT
Civil Twilight Sun does not set 1:25 AM AKDT
Nautical Twilight Sun does not set Sun does not set
Astronomical Twilight Sun does not set Sun does not set
Moon 11:35 PM AKDT (7/15) 2:41 AM AKDT (7/15)
Length of Visible Light 24h 00m
Length of Day
20h 05m
Waxing Gibbous, 99% of the Moon is Illuminated
Jul 15
Waxing Gibbous
Jul 16
Full
Jul 24
Last Quarter
Jul 31
New
Aug 7
First Quarter

Hourly Weather History & Observations

Time (AKDT) Temp. Dew Point Humidity Pressure Visibility Wind Dir Wind Speed Gust Speed Precip Events Conditions
12:53 AM 62.1 °F 52.0 °F 70% 29.76 in 10.0 mi South 6.9 mph - N/A   Scattered Clouds
1:53 AM 57.9 °F 53.1 °F 84% 29.76 in 10.0 mi Calm Calm - N/A   Scattered Clouds
2:53 AM 55.9 °F 52.0 °F 87% 29.76 in 10.0 mi NE 6.9 mph - N/A   Scattered Clouds
3:53 AM 54.0 °F 52.0 °F 93% 29.78 in 10.0 mi Calm Calm - N/A   Scattered Clouds
4:53 AM 54.0 °F 51.1 °F 90% 29.78 in 10.0 mi SE 5.8 mph - N/A   Scattered Clouds
5:53 AM 54.0 °F 51.1 °F 90% 29.78 in 10.0 mi Calm Calm - N/A   Scattered Clouds
6:53 AM 57.0 °F 53.1 °F 87% 29.78 in 10.0 mi NE 4.6 mph - N/A   Clear
7:53 AM 59.0 °F 53.1 °F 81% 29.78 in 10.0 mi NE 3.5 mph - N/A   Clear
8:53 AM 62.1 °F 53.1 °F 72% 29.78 in 10.0 mi NE 4.6 mph - N/A   Clear
9:53 AM 64.0 °F 52.0 °F 65% 29.77 in 10.0 mi ESE 3.5 mph - N/A   Clear
10:53 AM 66.9 °F 54.0 °F 63% 29.75 in 10.0 mi Calm Calm - N/A   Partly Cloudy
11:53 AM 70.0 °F 54.0 °F 57% 29.74 in 10.0 mi NNE 4.6 mph - N/A   Partly Cloudy
12:53 PM 73.0 °F 50.0 °F 44% 29.73 in 10.0 mi Variable 3.5 mph - N/A   Partly Cloudy
1:53 PM 73.9 °F 48.9 °F 41% 29.70 in 10.0 mi Variable 4.6 mph - N/A   Partly Cloudy
2:53 PM 75.9 °F 50.0 °F 40% 29.69 in 10.0 mi Calm Calm - N/A   Scattered Clouds
3:53 PM 77.0 °F 51.1 °F 40% 29.68 in 10.0 mi Calm Calm - N/A   Scattered Clouds
4:53 PM 78.1 °F 50.0 °F 37% 29.66 in 10.0 mi NW 4.6 mph - N/A   Scattered Clouds
5:53 PM 78.1 °F 50.0 °F 37% 29.64 in 10.0 mi Variable 3.5 mph - N/A   Scattered Clouds
6:53 PM 78.1 °F 48.0 °F 35% 29.63 in 10.0 mi WSW 3.5 mph - N/A   Scattered Clouds
7:53 PM 78.1 °F 46.9 °F 33% 29.62 in 10.0 mi Calm Calm - N/A   Scattered Clouds
8:53 PM 75.0 °F 48.9 °F 40% 29.62 in 10.0 mi SSW 10.4 mph 17.3 mph N/A   Scattered Clouds
9:53 PM 71.1 °F 48.0 °F 44% 29.62 in 10.0 mi Variable 4.6 mph - N/A   Mostly Cloudy
10:53 PM 69.1 °F 48.9 °F 49% 29.62 in 10.0 mi WSW 4.6 mph - N/A   Mostly Cloudy
11:53 PM 64.0 °F 50.0 °F 60% 29.63 in 10.0 mi South 5.8 mph - N/A   Mostly Cloudy